Weather History for KDXX - March, 2014

Change the Weather History Date:

Tuesday, March 25, 2014

  Actual Average (KAQP) Record (KAQP)
Temperature  
Mean Temperature 23 °F -  
Max Temperature 32 °F 40 °F 64 °F (2004)
Min Temperature 14 °F 22 °F -5 °F (2002)
Degree Days  
Heating Degree Days 42    
Moisture  
Dew Point 8 °F    
Average Humidity 56    
Maximum Humidity 80    
Minimum Humidity 27    
Precipitation  
Precipitation 0.00 in - - ()
Sea Level Pressure  
Sea Level Pressure 30.24 in    
Wind  
Wind Speed 13 mph (NW)    
Max Wind Speed 22 mph    
Max Gust Speed 31 mph    
Visibility 10 miles    
Events Snow    
Averages and records for this station are not official NWS values.
T = Trace of Precipitation, MM = Missing Value Source: NWS Daily Summary

Daily Weather History Graph

Daily Weather History Graph

Search for Another Location

Airport or City:

Trip Planner

Search our weather history database for the weather conditions in past years. The results will help you decide how hot, cold, wet, or windy it might be!

Date:

Astronomy

Mar. 25, 2014 Rise Set
Actual Time 7:18 AM CDT 7:43 PM CDT
Civil Twilight 6:49 AM CDT 8:13 PM CDT
Nautical Twilight 6:14 AM CDT 8:47 PM CDT
Astronomical Twilight 5:38 AM CDT 9:23 PM CDT
Moon 3:54 AM CDT (3/25) 2:02 PM CDT (3/25)
Length of Visible Light 13h 24m
Length of Day
12h 25m
Waning Crescent, 32% of the Moon is Illuminated
Mar 25
Waning Crescent
Mar 30
New
Apr 7
First Quarter
Apr 15
Full
Apr 22
Last Quarter

Hourly Weather History & Observations

Time (CDT) Temp. Windchill Dew Point Humidity Pressure Visibility Wind Dir Wind Speed Gust Speed Precip Events Conditions
12:13 AM 26.6 °F 14.7 °F 15.8 °F 64% 30.22 in 10.0 mi NNW 15.0 mph - N/A   Overcast
12:34 AM 26.6 °F 14.3 °F 15.8 °F 64% 30.23 in 10.0 mi NNW 16.1 mph 27.6 mph N/A   Overcast
12:53 AM 24.8 °F 10.3 °F 14.0 °F 64% 30.23 in 10.0 mi NNW 20.7 mph 27.6 mph N/A   Overcast
1:13 AM 24.8 °F 12.4 °F 17.6 °F 74% 30.24 in 5.0 mi North 15.0 mph - N/A Snow Light Snow
1:34 AM 21.2 °F 7.3 °F 15.8 °F 80% 30.25 in 10.0 mi North 16.1 mph 23.0 mph N/A   Mostly Cloudy
1:53 AM 21.2 °F 6.4 °F 10.4 °F 63% 30.25 in 10.0 mi North 18.4 mph 26.5 mph N/A   Scattered Clouds
2:14 AM 21.2 °F 5.2 °F 10.4 °F 63% 30.26 in 10.0 mi North 21.9 mph 26.5 mph N/A   Scattered Clouds
2:34 AM 21.2 °F 5.2 °F 10.4 °F 63% 30.27 in 10.0 mi NNW 21.9 mph 29.9 mph N/A   Mostly Cloudy
2:53 AM 19.4 °F 2.8 °F 8.6 °F 63% 30.28 in 10.0 mi North 21.9 mph 31.1 mph N/A   Overcast
3:14 AM 19.4 °F 5.5 °F 8.6 °F 63% 30.28 in 10.0 mi NNW 15.0 mph 23.0 mph N/A   Scattered Clouds
3:34 AM 17.6 °F 2.2 °F 6.8 °F 63% 30.28 in 10.0 mi NNW 17.3 mph 24.2 mph N/A   Clear
3:53 AM 17.6 °F 3.2 °F 6.8 °F 63% 30.29 in 10.0 mi NNW 15.0 mph 25.3 mph N/A   Clear
4:14 AM 15.8 °F -0.2 °F 6.8 °F 68% 30.30 in 10.0 mi NNW 17.3 mph 21.9 mph N/A   Clear
4:34 AM 15.8 °F 0.3 °F 5.0 °F 62% 30.30 in 10.0 mi NNW 16.1 mph - N/A   Clear
4:53 AM 15.8 °F 0.3 °F 5.0 °F 62% 30.31 in 10.0 mi NNW 16.1 mph 19.6 mph N/A   Clear
5:14 AM 15.8 °F 0.9 °F 5.0 °F 62% 30.31 in 10.0 mi NNW 15.0 mph 19.6 mph N/A   Clear
5:33 AM 15.8 °F 3.4 °F 6.8 °F 68% 30.32 in 10.0 mi NW 10.4 mph - N/A   Clear
5:54 AM 15.8 °F 4.2 °F 6.8 °F 68% 30.32 in 10.0 mi NW 9.2 mph - N/A   Clear
6:14 AM 15.8 °F 3.4 °F 6.8 °F 68% 30.32 in 10.0 mi NW 10.4 mph - N/A   Clear
6:33 AM 14.0 °F 0.5 °F 6.8 °F 73% 30.32 in 10.0 mi NW 11.5 mph - N/A   Clear
6:54 AM 14.0 °F 2.9 °F 6.8 °F 73% 30.31 in 10.0 mi NNW 8.1 mph - N/A   Clear
7:14 AM 14.0 °F 2.0 °F 6.8 °F 73% 30.32 in 10.0 mi NNW 9.2 mph - N/A   Clear
7:33 AM 14.0 °F 2.9 °F 6.8 °F 73% 30.32 in 10.0 mi NNW 8.1 mph - N/A   Clear
7:54 AM 15.8 °F 7.2 °F 6.8 °F 68% 30.33 in 10.0 mi NW 5.8 mph - N/A   Clear
8:14 AM 15.8 °F 5.1 °F 8.6 °F 73% 30.33 in 10.0 mi NNW 8.1 mph - N/A   Scattered Clouds
8:33 AM 17.6 °F 7.3 °F 8.6 °F 68% 30.33 in 10.0 mi NNW 8.1 mph - N/A   Mostly Cloudy
8:54 AM 17.6 °F 5.7 °F 10.4 °F 73% 30.35 in 1.8 mi WNW 10.4 mph - N/A Snow Light Snow
9:14 AM 17.6 °F 4.3 °F 8.6 °F 68% 30.35 in 10.0 mi WNW 12.7 mph - N/A   Scattered Clouds
9:33 AM 17.6 °F 3.2 °F 8.6 °F 68% 30.34 in 10.0 mi WNW 15.0 mph 18.4 mph N/A   Scattered Clouds
9:54 AM 19.4 °F 6.0 °F 6.8 °F 58% 30.34 in 10.0 mi WNW 13.8 mph - N/A   Clear
10:14 AM 19.4 °F 6.6 °F 6.8 °F 58% 30.34 in 10.0 mi NW 12.7 mph 16.1 mph N/A   Scattered Clouds
10:33 AM 19.4 °F 6.0 °F 6.8 °F 58% 30.35 in 10.0 mi NW 13.8 mph 20.7 mph N/A   Scattered Clouds
10:54 AM 19.4 °F 5.5 °F 6.8 °F 58% 30.34 in 10.0 mi NNW 15.0 mph - N/A   Scattered Clouds
11:14 AM 21.2 °F 10.9 °F 6.8 °F 54% 30.34 in 10.0 mi NW 9.2 mph 18.4 mph N/A   Scattered Clouds
11:33 AM 21.2 °F 9.5 °F 5.0 °F 50% 30.33 in 10.0 mi NNW 11.5 mph 19.6 mph N/A   Scattered Clouds
11:54 AM 21.2 °F 8.9 °F 5.0 °F 50% 30.33 in 10.0 mi NW 12.7 mph 18.4 mph N/A   Clear
12:14 PM 23.0 °F 11.1 °F 6.8 °F 50% 30.32 in 10.0 mi NW 12.7 mph 18.4 mph N/A   Scattered Clouds
12:33 PM 24.8 °F 12.9 °F 6.8 °F 46% 30.31 in 10.0 mi West 13.8 mph - N/A   Clear
12:54 PM 24.8 °F 16.1 °F 6.8 °F 46% 30.30 in 10.0 mi WNW 8.1 mph - N/A   Scattered Clouds
1:14 PM 26.6 °F 16.2 °F 6.8 °F 43% 30.29 in 10.0 mi WNW 11.5 mph 20.7 mph N/A   Clear
1:33 PM 26.6 °F 14.7 °F 6.8 °F 43% 30.28 in 10.0 mi NW 15.0 mph 19.6 mph N/A   Scattered Clouds
1:54 PM 26.6 °F 17.5 °F 6.8 °F 43% 30.27 in 10.0 mi NW 9.2 mph 17.3 mph N/A   Scattered Clouds
2:14 PM 28.4 °F 18.5 °F 6.8 °F 40% 30.26 in 10.0 mi WNW 11.5 mph 21.9 mph N/A   Clear
2:33 PM 28.4 °F 21.2 °F 6.8 °F 40% 30.24 in 10.0 mi NNW 6.9 mph 20.7 mph N/A   Clear
2:54 PM 30.2 °F 20.8 °F 6.8 °F 37% 30.23 in 10.0 mi NNW 11.5 mph - N/A   Clear
3:14 PM 30.2 °F 22.6 °F 6.8 °F 37% 30.22 in 10.0 mi NW 8.1 mph 11.5 mph N/A   Clear
3:33 PM 30.2 °F 19.8 °F 6.8 °F 37% 30.21 in 10.0 mi NW 13.8 mph 19.6 mph N/A   Clear
3:54 PM 30.2 °F 19.8 °F 5.0 °F 34% 30.20 in 10.0 mi NW 13.8 mph 19.6 mph N/A   Clear
4:14 PM 30.2 °F 19.3 °F 5.0 °F 34% 30.19 in 10.0 mi NW 15.0 mph 20.7 mph N/A   Clear
4:33 PM 30.2 °F 20.2 °F 3.2 °F 32% 30.19 in 10.0 mi WNW 12.7 mph 18.4 mph N/A   Clear
4:54 PM 30.2 °F 19.3 °F 3.2 °F 32% 30.18 in 10.0 mi WNW 15.0 mph 19.6 mph N/A   Clear
5:14 PM 32.0 °F 24.2 °F 3.2 °F 30% 30.18 in 10.0 mi NW 9.2 mph 16.1 mph N/A   Clear
5:33 PM 32.0 °F 23.0 °F 3.2 °F 30% 30.17 in 10.0 mi WNW 11.5 mph 16.1 mph N/A   Clear
5:54 PM 32.0 °F 24.8 °F 1.4 °F 27% 30.17 in 10.0 mi WNW 8.1 mph - N/A   Clear
6:13 PM 30.2 °F 20.8 °F 1.4 °F 29% 30.16 in 10.0 mi WNW 11.5 mph - N/A   Clear
6:34 PM 30.2 °F 23.4 °F 3.2 °F 32% 30.16 in 10.0 mi WNW 6.9 mph - N/A   Clear
6:54 PM 30.2 °F 22.6 °F 3.2 °F 32% 30.15 in 10.0 mi NW 8.1 mph - N/A   Clear
7:13 PM 30.2 °F 23.4 °F 3.2 °F 32% 30.15 in 10.0 mi NW 6.9 mph - N/A   Clear
7:34 PM 28.4 °F 22.2 °F 6.8 °F 40% 30.15 in 10.0 mi NW 5.8 mph - N/A   Clear
7:54 PM 28.4 °F - 8.6 °F 43% 30.14 in 10.0 mi Calm Calm - N/A   Clear
8:13 PM 26.6 °F - 10.4 °F 51% 30.15 in 10.0 mi Calm Calm - N/A   Clear
8:34 PM 26.6 °F - 10.4 °F 51% 30.15 in 10.0 mi Calm Calm - N/A   Clear
8:54 PM 26.6 °F - 8.6 °F 47% 30.14 in 10.0 mi Calm Calm - N/A   Clear
9:14 PM 26.6 °F - 12.2 °F 55% 30.14 in 10.0 mi Calm Calm - N/A   Clear
9:33 PM 24.8 °F 19.1 °F 14.0 °F 64% 30.14 in 10.0 mi South 4.6 mph - N/A   Clear
9:54 PM 24.8 °F 19.1 °F 15.8 °F 69% 30.13 in 10.0 mi South 4.6 mph - N/A   Clear
10:13 PM 24.8 °F 19.1 °F 15.8 °F 69% 30.13 in 10.0 mi South 4.6 mph - N/A   Clear
10:34 PM 23.0 °F 17.0 °F 17.6 °F 80% 30.12 in 10.0 mi South 4.6 mph - N/A   Clear
10:53 PM 23.0 °F 17.0 °F 15.8 °F 74% 30.12 in 10.0 mi SSE 4.6 mph - N/A   Clear
11:13 PM 23.0 °F 15.8 °F 15.8 °F 74% 30.11 in 10.0 mi SSE 5.8 mph - N/A   Clear
11:34 PM 21.2 °F 12.6 °F 15.8 °F 80% 30.10 in 10.0 mi SSE 6.9 mph - N/A   Clear
11:53 PM 21.2 °F 13.6 °F 15.8 °F 80% 30.09 in 10.0 mi SSE 5.8 mph - N/A   Clear